Year,Month,Day,Hour,Minute,Value (Times are PST for temperature in C)
2020,01,17,00,00,-2.60
2020,01,17,00,01,-2.60
2020,01,17,00,02,-2.60
2020,01,17,00,03,-2.60
2020,01,17,00,04,-2.60
2020,01,17,00,05,-2.60
2020,01,17,00,06,-2.60
2020,01,17,00,07,-2.60
2020,01,17,00,08,-2.60
2020,01,17,00,09,-2.60
2020,01,17,00,10,-2.60
2020,01,17,00,11,-2.50
2020,01,17,00,12,-2.50
2020,01,17,00,13,-2.40
2020,01,17,00,14,-2.40
2020,01,17,00,15,-2.40
2020,01,17,00,16,-2.40
2020,01,17,00,17,-2.30
2020,01,17,00,18,-2.30
2020,01,17,00,19,-2.30
2020,01,17,00,20,-2.30
2020,01,17,00,21,-2.40
2020,01,17,00,22,-2.40
2020,01,17,00,23,-2.40
2020,01,17,00,24,-2.40
2020,01,17,00,25,-2.40
2020,01,17,00,26,-2.40
2020,01,17,00,27,-2.40
2020,01,17,00,28,-2.40
2020,01,17,00,29,-2.40
2020,01,17,00,30,-2.40
2020,01,17,00,31,-2.40
2020,01,17,00,32,-2.40
2020,01,17,00,33,-2.40
2020,01,17,00,34,-2.40
2020,01,17,00,35,-2.40
2020,01,17,00,36,-2.40
2020,01,17,00,37,-2.40
2020,01,17,00,38,-2.40
2020,01,17,00,39,-2.40
2020,01,17,00,40,-2.40
2020,01,17,00,41,-2.40
2020,01,17,00,42,-2.40
2020,01,17,00,43,-2.40
2020,01,17,00,44,-2.40
2020,01,17,00,45,-2.40
2020,01,17,00,46,-2.40
2020,01,17,00,47,-2.50
2020,01,17,00,48,-2.50
2020,01,17,00,49,-2.60
2020,01,17,00,50,-2.60
2020,01,17,00,51,-2.60
2020,01,17,00,52,-2.60
2020,01,17,00,53,-2.60
2020,01,17,00,54,-2.60
2020,01,17,00,55,-2.60
2020,01,17,00,56,-2.70
2020,01,17,00,57,-2.70
2020,01,17,00,58,-2.70
2020,01,17,00,59,-2.70
2020,01,17,01,00,-2.70
2020,01,17,01,01,-2.70
2020,01,17,01,02,-2.70
2020,01,17,01,03,-2.70
2020,01,17,01,04,-2.70
2020,01,17,01,05,-2.80
2020,01,17,01,06,-2.70
2020,01,17,01,07,-2.70
2020,01,17,01,08,-2.70
2020,01,17,01,09,-2.70
2020,01,17,01,10,-2.70
2020,01,17,01,11,-2.70
2020,01,17,01,12,-2.70
2020,01,17,01,13,-2.70
2020,01,17,01,14,-2.70
2020,01,17,01,15,-2.60
2020,01,17,01,16,-2.60
2020,01,17,01,17,-2.60
2020,01,17,01,18,-2.70
2020,01,17,01,19,-2.70
2020,01,17,01,20,-2.70
2020,01,17,01,21,-2.70
2020,01,17,01,22,-2.70
2020,01,17,01,23,-2.80
2020,01,17,01,24,-2.80
2020,01,17,01,25,-2.80
2020,01,17,01,26,-2.80
2020,01,17,01,27,-2.70
2020,01,17,01,28,-2.70
2020,01,17,01,29,-2.70
2020,01,17,01,30,-2.60
2020,01,17,01,31,-2.60
2020,01,17,01,32,-2.60
2020,01,17,01,33,-2.50
2020,01,17,01,34,-2.40
2020,01,17,01,35,-2.40
2020,01,17,01,36,-2.40
2020,01,17,01,37,-2.30
2020,01,17,01,38,-2.30
2020,01,17,01,39,-2.30
2020,01,17,01,40,-2.30
2020,01,17,01,41,-2.40
2020,01,17,01,42,-2.40
2020,01,17,01,43,-2.40
2020,01,17,01,44,-2.40
2020,01,17,01,45,-2.40
2020,01,17,01,46,-2.40
2020,01,17,01,47,-2.40
2020,01,17,01,48,-2.40
2020,01,17,01,49,-2.50
2020,01,17,01,50,-2.60
2020,01,17,01,51,-2.80
2020,01,17,01,52,-2.90
2020,01,17,01,53,-3.00
2020,01,17,01,54,-3.10
2020,01,17,01,55,-3.20
2020,01,17,01,56,-3.20
2020,01,17,01,57,-3.20
2020,01,17,01,58,-3.20
2020,01,17,01,59,-3.20
2020,01,17,02,00,-3.20
2020,01,17,02,01,-3.20
2020,01,17,02,02,-3.20
2020,01,17,02,03,-3.20
2020,01,17,02,04,-3.20
2020,01,17,02,05,-3.20
2020,01,17,02,06,-3.20
2020,01,17,02,07,-3.20
2020,01,17,02,08,-3.20
2020,01,17,02,09,-3.30
2020,01,17,02,10,-3.30
2020,01,17,02,11,-3.30
2020,01,17,02,12,-3.30
2020,01,17,02,13,-3.40
2020,01,17,02,14,-3.40
2020,01,17,02,15,-3.40
2020,01,17,02,16,-3.40
2020,01,17,02,17,-3.50
2020,01,17,02,18,-3.50
2020,01,17,02,19,-3.40
2020,01,17,02,20,-3.50
2020,01,17,02,21,-3.50
2020,01,17,02,22,-3.50
2020,01,17,02,23,-3.50
2020,01,17,02,24,-3.40
2020,01,17,02,25,-3.40
2020,01,17,02,26,-3.40
2020,01,17,02,27,-3.30
2020,01,17,02,28,-3.30
2020,01,17,02,29,-3.30
2020,01,17,02,30,-3.40
2020,01,17,02,31,-3.40
2020,01,17,02,32,-3.40
2020,01,17,02,33,-3.40
2020,01,17,02,34,-3.50
2020,01,17,02,35,-3.50
2020,01,17,02,36,-3.60
2020,01,17,02,37,-3.60
2020,01,17,02,38,-3.60
2020,01,17,02,39,-3.60
2020,01,17,02,40,-3.60
2020,01,17,02,41,-3.60
2020,01,17,02,42,-3.60
2020,01,17,02,43,-3.60
2020,01,17,02,44,-3.60
2020,01,17,02,45,-3.60
2020,01,17,02,46,-3.60
2020,01,17,02,47,-3.60
2020,01,17,02,48,-3.70
2020,01,17,02,49,-3.70
2020,01,17,02,50,-3.80
2020,01,17,02,51,-3.80
2020,01,17,02,52,-3.90
2020,01,17,02,53,-3.90
2020,01,17,02,54,-3.90
2020,01,17,02,55,-4.00
2020,01,17,02,56,-4.00
2020,01,17,02,57,-4.00
2020,01,17,02,58,-3.90
2020,01,17,02,59,-3.90
2020,01,17,03,00,-3.90
2020,01,17,03,01,-3.90
2020,01,17,03,02,-3.80
2020,01,17,03,03,-3.80
2020,01,17,03,04,-3.80
2020,01,17,03,05,-3.90
2020,01,17,03,06,-3.90
2020,01,17,03,07,-3.90
2020,01,17,03,08,-3.90
2020,01,17,03,09,-4.00
2020,01,17,03,10,-4.00
2020,01,17,03,11,-4.00
2020,01,17,03,12,-4.00
2020,01,17,03,13,-3.90
2020,01,17,03,14,-3.90
2020,01,17,03,15,-3.80
2020,01,17,03,16,-3.80
2020,01,17,03,17,-3.80
2020,01,17,03,18,-3.80
2020,01,17,03,19,-3.90
2020,01,17,03,20,-3.90
2020,01,17,03,21,-3.90
2020,01,17,03,22,-4.00
2020,01,17,03,23,-4.00
2020,01,17,03,24,-4.10
2020,01,17,03,25,-4.10
2020,01,17,03,26,-4.10
2020,01,17,03,27,-4.10
2020,01,17,03,28,-4.00
2020,01,17,03,29,-4.10
2020,01,17,03,30,-4.10
2020,01,17,03,31,-4.10
2020,01,17,03,32,-4.10
2020,01,17,03,33,-4.10
2020,01,17,03,34,-4.10
2020,01,17,03,35,-4.20
2020,01,17,03,36,-4.30
2020,01,17,03,37,-4.30
2020,01,17,03,38,-4.40
2020,01,17,03,39,-4.50
2020,01,17,03,40,-4.50
2020,01,17,03,41,-4.60
2020,01,17,03,42,-4.60
2020,01,17,03,43,-4.60
2020,01,17,03,44,-4.60
2020,01,17,03,45,-4.60
2020,01,17,03,46,-4.60
2020,01,17,03,47,-4.60
2020,01,17,03,48,-4.60
2020,01,17,03,49,-4.60
2020,01,17,03,50,-4.50
2020,01,17,03,51,-4.40
2020,01,17,03,52,-4.30
2020,01,17,03,53,-4.30
2020,01,17,03,54,-4.30
2020,01,17,03,55,-4.30
2020,01,17,03,56,-4.40
2020,01,17,03,57,-4.40
2020,01,17,03,58,-4.50
2020,01,17,03,59,-4.50
2020,01,17,04,00,-4.60
2020,01,17,04,01,-4.60
2020,01,17,04,02,-4.60
2020,01,17,04,03,-4.50
2020,01,17,04,04,-4.50
2020,01,17,04,05,-4.50
2020,01,17,04,06,-4.50
2020,01,17,04,07,-4.50
2020,01,17,04,08,-4.50
2020,01,17,04,09,-4.60
2020,01,17,04,10,-4.60
2020,01,17,04,11,-4.60
2020,01,17,04,12,-4.70
2020,01,17,04,13,-4.70
2020,01,17,04,14,-4.70
2020,01,17,04,15,-4.70
2020,01,17,04,16,-4.70
2020,01,17,04,17,-4.70
2020,01,17,04,18,-4.70
2020,01,17,04,19,-4.60
2020,01,17,04,20,-4.60
2020,01,17,04,21,-4.60
2020,01,17,04,22,-4.60
2020,01,17,04,23,-4.60
2020,01,17,04,24,-4.60
2020,01,17,04,25,-4.60
2020,01,17,04,26,-4.60
2020,01,17,04,27,-4.70
2020,01,17,04,28,-4.80
2020,01,17,04,29,-4.80
2020,01,17,04,30,-4.90
2020,01,17,04,31,-4.90
2020,01,17,04,32,-5.00
2020,01,17,04,33,-5.00
2020,01,17,04,34,-5.10
2020,01,17,04,35,-5.10
2020,01,17,04,36,-5.10
2020,01,17,04,37,-5.20
2020,01,17,04,38,-5.20
2020,01,17,04,39,-5.30
2020,01,17,04,40,-5.30
2020,01,17,04,41,-5.30
2020,01,17,04,42,-5.30
2020,01,17,04,43,-5.30
2020,01,17,04,44,-5.30
2020,01,17,04,45,-5.30
2020,01,17,04,46,-5.30
2020,01,17,04,47,-5.30
2020,01,17,04,48,-5.30
2020,01,17,04,49,-5.30
2020,01,17,04,50,-5.30
2020,01,17,04,51,-5.30
2020,01,17,04,52,-5.30
2020,01,17,04,53,-5.20
2020,01,17,04,54,-5.20
2020,01,17,04,55,-5.20
2020,01,17,04,56,-5.20
2020,01,17,04,57,-5.10
2020,01,17,04,58,-5.10
2020,01,17,04,59,-5.10
2020,01,17,05,00,-5.00
2020,01,17,05,01,-5.00
2020,01,17,05,02,-5.00
2020,01,17,05,03,-5.00
2020,01,17,05,04,-5.00
2020,01,17,05,05,-5.00
2020,01,17,05,06,-5.00
2020,01,17,05,07,-5.00
2020,01,17,05,08,-5.00
2020,01,17,05,09,-5.00
2020,01,17,05,10,-5.00
2020,01,17,05,11,-5.00
2020,01,17,05,12,-5.00
2020,01,17,05,13,-5.00
2020,01,17,05,14,-5.00
2020,01,17,05,15,-5.00
2020,01,17,05,16,-5.10
2020,01,17,05,17,-5.10
2020,01,17,05,18,-5.10
2020,01,17,05,19,-5.20
2020,01,17,05,20,-5.20
2020,01,17,05,21,-5.30
2020,01,17,05,22,-5.30
2020,01,17,05,23,-5.30
2020,01,17,05,24,-5.40
2020,01,17,05,25,-5.40
2020,01,17,05,26,-5.40
2020,01,17,05,27,-5.40
2020,01,17,05,28,-5.40
2020,01,17,05,29,-5.40
2020,01,17,05,30,-5.30
2020,01,17,05,31,-5.30
2020,01,17,05,32,-5.30
2020,01,17,05,33,-5.30
2020,01,17,05,34,-5.30
2020,01,17,05,35,-5.30
2020,01,17,05,36,-5.30
2020,01,17,05,37,-5.30
2020,01,17,05,38,-5.30
2020,01,17,05,39,-5.30
2020,01,17,05,40,-5.30
2020,01,17,05,41,-5.20
2020,01,17,05,42,-5.20
2020,01,17,05,43,-5.20
2020,01,17,05,44,-5.20
2020,01,17,05,45,-5.20
2020,01,17,05,46,-5.20
2020,01,17,05,47,-5.30
2020,01,17,05,48,-5.30
2020,01,17,05,49,-5.30
2020,01,17,05,50,-5.30
2020,01,17,05,51,-5.30
2020,01,17,05,52,-5.30
2020,01,17,05,53,-5.30
2020,01,17,05,54,-5.30
2020,01,17,05,55,-5.30
2020,01,17,05,56,-5.40
2020,01,17,05,57,-5.40
2020,01,17,05,58,-5.40
2020,01,17,05,59,-5.40
2020,01,17,06,00,-5.50
2020,01,17,06,01,-5.50
2020,01,17,06,02,-5.50
2020,01,17,06,03,-5.60
2020,01,17,06,04,-5.60
2020,01,17,06,05,-5.60
2020,01,17,06,06,-5.60
2020,01,17,06,07,-5.60
2020,01,17,06,08,-5.60
2020,01,17,06,09,-5.70
2020,01,17,06,10,-5.70
2020,01,17,06,11,-5.70
2020,01,17,06,12,-5.80
2020,01,17,06,13,-5.80
2020,01,17,06,14,-5.80
2020,01,17,06,15,-5.80
2020,01,17,06,16,-5.80
2020,01,17,06,17,-5.80
2020,01,17,06,18,-5.80
2020,01,17,06,19,-5.90
2020,01,17,06,20,-5.90
2020,01,17,06,21,-5.90
2020,01,17,06,22,-5.90
2020,01,17,06,23,-5.90
2020,01,17,06,24,-5.90
2020,01,17,06,25,-5.90
2020,01,17,06,26,-5.90
2020,01,17,06,27,-5.90
2020,01,17,06,28,-5.90
2020,01,17,06,29,-5.90
2020,01,17,06,30,-5.90
2020,01,17,06,31,-5.90
2020,01,17,06,32,-5.90
2020,01,17,06,33,-5.90
2020,01,17,06,34,-5.90
2020,01,17,06,35,-5.90
2020,01,17,06,36,-5.90
2020,01,17,06,37,-6.00
2020,01,17,06,38,-6.00
2020,01,17,06,39,-6.00
2020,01,17,06,40,-6.00
2020,01,17,06,41,-6.00
2020,01,17,06,42,-6.00
2020,01,17,06,43,-6.00
2020,01,17,06,44,-6.00
2020,01,17,06,45,-6.00
2020,01,17,06,46,-6.00
2020,01,17,06,47,-6.00
2020,01,17,06,48,-6.00
2020,01,17,06,49,-6.00
2020,01,17,06,50,-6.00
2020,01,17,06,51,-6.00
2020,01,17,06,52,-6.00
2020,01,17,06,53,-6.00
2020,01,17,06,54,-6.00
2020,01,17,06,55,-5.90
2020,01,17,06,56,-5.90
2020,01,17,06,57,-5.90
2020,01,17,06,58,-5.80
2020,01,17,06,59,-5.70
2020,01,17,07,00,-5.60
2020,01,17,07,01,-5.60
2020,01,17,07,02,-5.60
2020,01,17,07,03,-5.60
2020,01,17,07,04,-5.60
2020,01,17,07,05,-5.60
2020,01,17,07,06,-5.60
2020,01,17,07,07,-5.60
2020,01,17,07,08,-5.60
2020,01,17,07,09,-5.60
2020,01,17,07,10,-5.70
2020,01,17,07,11,-5.70
2020,01,17,07,12,-5.80
2020,01,17,07,13,-5.80
2020,01,17,07,14,-5.80
2020,01,17,07,15,-5.90
2020,01,17,07,16,-5.90
2020,01,17,07,17,-5.90
2020,01,17,07,18,-5.90
2020,01,17,07,19,-5.90
2020,01,17,07,20,-6.00
2020,01,17,07,21,-6.00
2020,01,17,07,22,-6.00
2020,01,17,07,23,-6.00
2020,01,17,07,24,-6.10
2020,01,17,07,25,-6.10
2020,01,17,07,26,-6.10
2020,01,17,07,27,-6.10
2020,01,17,07,28,-6.10
2020,01,17,07,29,-6.10
2020,01,17,07,30,-6.10
2020,01,17,07,31,-6.10
2020,01,17,07,32,-6.00
2020,01,17,07,33,-6.00
2020,01,17,07,34,-6.00
2020,01,17,07,35,-6.00
2020,01,17,07,36,-6.00
2020,01,17,07,37,-6.10
2020,01,17,07,38,-6.10
2020,01,17,07,39,-6.10
2020,01,17,07,40,-6.10
2020,01,17,07,41,-6.10
2020,01,17,07,42,-6.10
2020,01,17,07,43,-6.10
2020,01,17,07,44,-6.10
2020,01,17,07,45,-6.10
2020,01,17,07,46,-6.00
2020,01,17,07,47,-6.00
2020,01,17,07,48,-5.90
2020,01,17,07,49,-5.90
2020,01,17,07,50,-5.80
2020,01,17,07,51,-5.80
2020,01,17,07,52,-5.80
2020,01,17,07,53,-5.80
2020,01,17,07,54,-5.80
2020,01,17,07,55,-5.80
2020,01,17,07,56,-5.80
2020,01,17,07,57,-5.80
2020,01,17,07,58,-5.90
2020,01,17,07,59,-5.90
2020,01,17,08,00,-5.90
2020,01,17,08,01,-5.90
2020,01,17,08,02,-6.00
2020,01,17,08,03,-6.00
2020,01,17,08,04,-6.00
2020,01,17,08,05,-6.10
2020,01,17,08,06,-6.10
2020,01,17,08,07,-6.20
2020,01,17,08,08,-6.20
2020,01,17,08,09,-6.20
2020,01,17,08,10,-6.20
2020,01,17,08,11,-6.20
2020,01,17,08,12,-6.10
2020,01,17,08,13,-6.10
2020,01,17,08,14,-6.00
2020,01,17,08,15,-6.00
2020,01,17,08,16,-5.90
2020,01,17,08,17,-5.80
2020,01,17,08,18,-5.80
2020,01,17,08,19,-5.80
2020,01,17,08,20,-5.70
2020,01,17,08,21,-5.70
2020,01,17,08,22,-5.70
2020,01,17,08,23,-5.60
2020,01,17,08,24,-5.60
2020,01,17,08,25,-5.60
2020,01,17,08,26,-5.60
2020,01,17,08,27,-5.50
2020,01,17,08,28,-5.50
2020,01,17,08,29,-5.50
2020,01,17,08,30,-5.50
2020,01,17,08,31,-5.50
2020,01,17,08,32,-5.50
2020,01,17,08,33,-5.50
2020,01,17,08,34,-5.60
2020,01,17,08,35,-5.60
2020,01,17,08,36,-5.60
2020,01,17,08,37,-5.60
2020,01,17,08,38,-5.60
2020,01,17,08,39,-5.60
2020,01,17,08,40,-5.60
2020,01,17,08,41,-5.60
2020,01,17,08,42,-5.60
2020,01,17,08,43,-5.60
2020,01,17,08,44,-5.60
2020,01,17,08,45,-5.60
2020,01,17,08,46,-5.60
2020,01,17,08,47,-5.60
2020,01,17,08,48,-5.60
2020,01,17,08,49,-5.70
2020,01,17,08,50,-5.70
2020,01,17,08,51,-5.70
2020,01,17,08,52,-5.70
2020,01,17,08,53,-5.70
2020,01,17,08,54,-5.60
2020,01,17,08,55,-5.60
2020,01,17,08,56,-5.60
2020,01,17,08,57,-5.50
2020,01,17,08,58,-5.50
2020,01,17,08,59,-5.50
2020,01,17,09,00,-5.50
2020,01,17,09,01,-5.40
2020,01,17,09,02,-5.40
2020,01,17,09,03,-5.40
2020,01,17,09,04,-5.30
2020,01,17,09,05,-5.30
2020,01,17,09,06,-5.20
2020,01,17,09,07,-5.10
2020,01,17,09,08,-5.10
2020,01,17,09,09,-5.00
2020,01,17,09,10,-5.00
2020,01,17,09,11,-5.00
2020,01,17,09,12,-5.00
2020,01,17,09,13,-5.00
2020,01,17,09,14,-5.00
2020,01,17,09,15,-5.10
2020,01,17,09,16,-5.10
2020,01,17,09,17,-5.20
2020,01,17,09,18,-5.20
2020,01,17,09,19,-5.30
2020,01,17,09,20,-5.30
2020,01,17,09,21,-5.30
2020,01,17,09,22,-5.30
2020,01,17,09,23,-5.30
2020,01,17,09,24,-5.20
2020,01,17,09,25,-5.20
2020,01,17,09,26,-5.20
2020,01,17,09,27,-5.20
2020,01,17,09,28,-5.20
2020,01,17,09,29,-5.20
2020,01,17,09,30,-5.20
2020,01,17,09,31,-5.10
2020,01,17,09,32,-5.10
2020,01,17,09,33,-5.10
2020,01,17,09,34,-5.00
2020,01,17,09,35,-5.00
2020,01,17,09,36,-4.90
2020,01,17,09,37,-4.90
2020,01,17,09,38,-4.80
2020,01,17,09,39,-4.80
2020,01,17,09,40,-4.80
2020,01,17,09,41,-4.80
2020,01,17,09,42,-4.80
2020,01,17,09,43,-4.70
2020,01,17,09,44,-4.70
2020,01,17,09,45,-4.70
2020,01,17,09,46,-4.60
2020,01,17,09,47,-4.60
2020,01,17,09,48,-4.50
2020,01,17,09,49,-4.50
2020,01,17,09,50,-4.50
2020,01,17,09,51,-4.40
2020,01,17,09,52,-4.40
2020,01,17,09,53,-4.30
2020,01,17,09,54,-4.20
2020,01,17,09,55,-4.10
2020,01,17,09,56,-4.00
2020,01,17,09,57,-3.90
2020,01,17,09,58,-3.80
2020,01,17,09,59,-3.70
2020,01,17,10,00,-3.70
2020,01,17,10,01,-3.70
2020,01,17,10,02,-3.60
2020,01,17,10,03,-3.60
2020,01,17,10,04,-3.60
2020,01,17,10,05,-3.60
2020,01,17,10,06,-3.60
2020,01,17,10,07,-3.60
2020,01,17,10,08,-3.60
2020,01,17,10,09,-3.50
2020,01,17,10,10,-3.50
2020,01,17,10,11,-3.50
2020,01,17,10,12,-3.40
2020,01,17,10,13,-3.40
2020,01,17,10,14,-3.40
2020,01,17,10,15,-3.30
2020,01,17,10,16,-3.30
2020,01,17,10,17,-3.30
2020,01,17,10,18,-3.20
2020,01,17,10,19,-3.10
2020,01,17,10,20,-3.00
2020,01,17,10,21,-3.00
2020,01,17,10,22,-2.90
2020,01,17,10,23,-2.90
2020,01,17,10,24,-2.90
2020,01,17,10,25,-2.80
2020,01,17,10,26,-2.80
2020,01,17,10,27,-2.70
2020,01,17,10,28,-2.70
2020,01,17,10,29,-2.70
2020,01,17,10,30,-2.70
2020,01,17,10,31,-2.60
2020,01,17,10,32,-2.60
2020,01,17,10,33,-2.60
2020,01,17,10,34,-2.50
2020,01,17,10,35,-2.40
2020,01,17,10,36,-2.40
2020,01,17,10,37,-2.30
2020,01,17,10,38,-2.30
2020,01,17,10,39,-2.20
2020,01,17,10,40,-2.10
2020,01,17,10,41,-2.10
2020,01,17,10,42,-2.00
2020,01,17,10,43,-1.90
2020,01,17,10,44,-1.90
2020,01,17,10,45,-1.80
2020,01,17,10,46,-1.80
2020,01,17,10,47,-1.70
2020,01,17,10,48,-1.70
2020,01,17,10,49,-1.60
2020,01,17,10,50,-1.60
2020,01,17,10,51,-1.60
2020,01,17,10,52,-1.50
2020,01,17,10,53,-1.40
2020,01,17,10,54,-1.40
2020,01,17,10,55,-1.30
2020,01,17,10,56,-1.20
2020,01,17,10,57,-1.10
2020,01,17,10,58,-0.90
2020,01,17,10,59,-0.80
2020,01,17,11,00,-0.70
2020,01,17,11,01,-0.60
2020,01,17,11,02,-0.60
2020,01,17,11,03,-0.50
2020,01,17,11,04,-0.40
2020,01,17,11,05,-0.40
2020,01,17,11,06,-0.30
2020,01,17,11,07,-0.30
2020,01,17,11,08,-0.30
2020,01,17,11,09,-0.20
2020,01,17,11,10,-0.20
2020,01,17,11,11,-0.20
2020,01,17,11,12,-0.10
2020,01,17,11,13,-0.10
2020,01,17,11,14,-0.10
2020,01,17,11,15,0.00
2020,01,17,11,16,0.00
2020,01,17,11,17,0.10
2020,01,17,11,18,0.10
2020,01,17,11,19,0.20
2020,01,17,11,20,0.20
2020,01,17,11,21,0.30
2020,01,17,11,22,0.30
2020,01,17,11,23,0.40
2020,01,17,11,24,0.40
2020,01,17,11,25,0.40
2020,01,17,11,26,0.50
2020,01,17,11,27,0.60
2020,01,17,11,28,0.60
2020,01,17,11,29,0.70
2020,01,17,11,30,0.70
2020,01,17,11,31,0.80
2020,01,17,11,32,0.80
2020,01,17,11,33,0.90
2020,01,17,11,34,0.90
2020,01,17,11,35,1.00
2020,01,17,11,36,1.00
2020,01,17,11,37,1.10
2020,01,17,11,38,1.10
2020,01,17,11,39,1.20
2020,01,17,11,40,1.20
2020,01,17,11,41,1.20
2020,01,17,11,42,1.20
2020,01,17,11,43,1.30
2020,01,17,11,44,1.30
2020,01,17,11,45,1.30
2020,01,17,11,46,1.40
2020,01,17,11,47,1.40
2020,01,17,11,48,1.40
2020,01,17,11,49,1.50
2020,01,17,11,50,1.50
2020,01,17,11,51,1.50
2020,01,17,11,52,1.60
2020,01,17,11,53,1.60
2020,01,17,11,54,1.60
2020,01,17,11,55,1.70
2020,01,17,11,56,1.70
2020,01,17,11,57,1.70
2020,01,17,11,58,1.80
2020,01,17,11,59,1.80
2020,01,17,12,00,1.80
2020,01,17,12,01,1.80
2020,01,17,12,02,1.90
2020,01,17,12,03,1.90
2020,01,17,12,04,1.90
2020,01,17,12,05,1.90
2020,01,17,12,06,2.00
2020,01,17,12,07,2.00
2020,01,17,12,08,2.00
2020,01,17,12,09,2.00
2020,01,17,12,10,2.00
2020,01,17,12,11,2.10
2020,01,17,12,12,2.10
2020,01,17,12,13,2.10
2020,01,17,12,14,2.10
2020,01,17,12,15,2.10
2020,01,17,12,16,2.10
2020,01,17,12,17,2.10
2020,01,17,12,18,2.10
2020,01,17,12,19,2.20
2020,01,17,12,20,2.20
2020,01,17,12,21,2.20
2020,01,17,12,22,2.20
2020,01,17,12,23,2.20
2020,01,17,12,24,2.20
2020,01,17,12,25,2.20
2020,01,17,12,26,2.30
2020,01,17,12,27,2.30
2020,01,17,12,28,2.30
2020,01,17,12,29,2.30
2020,01,17,12,30,2.30
2020,01,17,12,31,2.30
2020,01,17,12,32,2.40
2020,01,17,12,33,2.40
2020,01,17,12,34,2.40
2020,01,17,12,35,2.40
2020,01,17,12,36,2.40
2020,01,17,12,37,2.50
2020,01,17,12,38,2.50
2020,01,17,12,39,2.50
2020,01,17,12,40,2.50
2020,01,17,12,41,2.50
2020,01,17,12,42,2.50
2020,01,17,12,43,2.50
2020,01,17,12,44,2.50
2020,01,17,12,45,2.50
2020,01,17,12,46,2.50
2020,01,17,12,47,2.50
2020,01,17,12,48,2.50
2020,01,17,12,49,2.50
2020,01,17,12,50,2.50
2020,01,17,12,51,2.50
2020,01,17,12,52,2.50
2020,01,17,12,53,2.50
2020,01,17,12,54,2.50
2020,01,17,12,55,2.60
2020,01,17,12,56,2.50
2020,01,17,12,57,2.60
2020,01,17,12,58,2.60
2020,01,17,12,59,2.60
2020,01,17,13,00,2.60
2020,01,17,13,01,2.60
2020,01,17,13,02,2.60
2020,01,17,13,03,2.60
2020,01,17,13,04,2.60
2020,01,17,13,05,2.60
2020,01,17,13,06,2.60
2020,01,17,13,07,2.60
2020,01,17,13,08,2.60
2020,01,17,13,09,2.60
2020,01,17,13,10,2.60
2020,01,17,13,11,2.60
2020,01,17,13,12,2.60
2020,01,17,13,13,2.60
2020,01,17,13,14,2.60
2020,01,17,13,15,2.60
2020,01,17,13,16,2.60
2020,01,17,13,17,2.60
2020,01,17,13,18,2.70
2020,01,17,13,19,2.70
2020,01,17,13,20,2.70
2020,01,17,13,21,2.70
2020,01,17,13,22,2.70
2020,01,17,13,23,2.70
2020,01,17,13,24,2.70
2020,01,17,13,25,2.80
2020,01,17,13,26,2.80
2020,01,17,13,27,2.80
2020,01,17,13,28,2.80
2020,01,17,13,29,2.80
2020,01,17,13,30,2.70
2020,01,17,13,31,2.70
2020,01,17,13,32,2.70
2020,01,17,13,33,2.70
2020,01,17,13,34,2.70
2020,01,17,13,35,2.70
2020,01,17,13,36,2.70
2020,01,17,13,37,2.70
2020,01,17,13,38,2.70
2020,01,17,13,39,2.70
2020,01,17,13,40,2.70
2020,01,17,13,41,2.70
2020,01,17,13,42,2.80
2020,01,17,13,43,2.80
2020,01,17,13,44,2.80
2020,01,17,13,45,2.80
2020,01,17,13,46,2.80
2020,01,17,13,47,2.80
2020,01,17,13,48,2.80
2020,01,17,13,49,2.80
2020,01,17,13,50,2.80
2020,01,17,13,51,2.80
2020,01,17,13,52,2.80
2020,01,17,13,53,2.80
2020,01,17,13,54,2.70
2020,01,17,13,55,2.70
2020,01,17,13,56,2.70
2020,01,17,13,57,2.70
2020,01,17,13,58,2.70
2020,01,17,13,59,2.70
2020,01,17,14,00,2.70
2020,01,17,14,01,2.70
2020,01,17,14,02,2.70
2020,01,17,14,03,2.70
2020,01,17,14,04,2.70
2020,01,17,14,05,2.70
2020,01,17,14,06,2.70
2020,01,17,14,07,2.70
2020,01,17,14,08,2.70
2020,01,17,14,09,2.60
2020,01,17,14,10,2.60
2020,01,17,14,11,2.60
2020,01,17,14,12,2.60
2020,01,17,14,13,2.60
2020,01,17,14,14,2.60
2020,01,17,14,15,2.60
2020,01,17,14,16,2.60
2020,01,17,14,17,2.60
2020,01,17,14,18,2.60
2020,01,17,14,19,2.60
2020,01,17,14,20,2.60
2020,01,17,14,21,2.70
2020,01,17,14,22,2.60
2020,01,17,14,23,2.70
2020,01,17,14,24,2.70
2020,01,17,14,25,2.70
2020,01,17,14,26,2.70
2020,01,17,14,27,2.70
2020,01,17,14,28,2.70
2020,01,17,14,29,2.70
2020,01,17,14,30,2.70
2020,01,17,14,31,2.70
2020,01,17,14,32,2.70
2020,01,17,14,33,2.70
2020,01,17,14,34,2.70
2020,01,17,14,35,2.70
2020,01,17,14,36,2.70
2020,01,17,14,37,2.70
2020,01,17,14,38,2.70
2020,01,17,14,39,2.70
2020,01,17,14,40,2.70
2020,01,17,14,41,2.70
2020,01,17,14,42,2.70
2020,01,17,14,43,2.70
2020,01,17,14,44,2.70
2020,01,17,14,45,2.70
2020,01,17,14,46,2.70
2020,01,17,14,47,2.70
2020,01,17,14,48,2.70
2020,01,17,14,49,2.70
2020,01,17,14,50,2.70
2020,01,17,14,51,2.70
2020,01,17,14,52,2.70
2020,01,17,14,53,2.70
2020,01,17,14,54,2.70
2020,01,17,14,55,2.70
2020,01,17,14,56,2.70
2020,01,17,14,57,2.70
2020,01,17,14,58,2.70
2020,01,17,14,59,2.70
2020,01,17,15,00,2.70
2020,01,17,15,01,2.70
2020,01,17,15,02,2.70
2020,01,17,15,03,2.70
2020,01,17,15,04,2.70
2020,01,17,15,05,2.70
2020,01,17,15,06,2.70
2020,01,17,15,07,2.70
2020,01,17,15,08,2.60
2020,01,17,15,09,2.60
2020,01,17,15,10,2.60
2020,01,17,15,11,2.60
2020,01,17,15,12,2.60
2020,01,17,15,13,2.60
2020,01,17,15,14,2.60
2020,01,17,15,15,2.60
2020,01,17,15,16,2.60
2020,01,17,15,17,2.60
2020,01,17,15,18,2.60
2020,01,17,15,19,2.60
2020,01,17,15,20,2.60
2020,01,17,15,21,2.60
2020,01,17,15,22,2.60
2020,01,17,15,23,2.60
2020,01,17,15,24,2.60
2020,01,17,15,25,2.60
2020,01,17,15,26,2.60
2020,01,17,15,27,2.60
2020,01,17,15,28,2.60
2020,01,17,15,29,2.60
2020,01,17,15,30,2.60
2020,01,17,15,31,2.60
2020,01,17,15,32,2.60
2020,01,17,15,33,2.60
2020,01,17,15,34,2.60
2020,01,17,15,35,2.60
2020,01,17,15,36,2.60
2020,01,17,15,37,2.60
2020,01,17,15,38,2.60
2020,01,17,15,39,2.60
2020,01,17,15,40,2.60
2020,01,17,15,41,2.60
2020,01,17,15,42,2.60
2020,01,17,15,43,2.60
2020,01,17,15,44,2.60
2020,01,17,15,45,2.60
2020,01,17,15,46,2.60
2020,01,17,15,47,2.60
2020,01,17,15,48,2.60
2020,01,17,15,49,2.60
2020,01,17,15,50,2.60
2020,01,17,15,51,2.60
2020,01,17,15,52,2.60
2020,01,17,15,53,2.60
2020,01,17,15,54,2.60
2020,01,17,15,55,2.60
2020,01,17,15,56,2.60
2020,01,17,15,57,2.60
2020,01,17,15,58,2.60
2020,01,17,15,59,2.60
2020,01,17,16,00,2.60
2020,01,17,16,01,2.60
2020,01,17,16,02,2.60
2020,01,17,16,03,2.60
2020,01,17,16,04,2.60
2020,01,17,16,05,2.60
2020,01,17,16,06,2.60
2020,01,17,16,07,2.60
2020,01,17,16,08,2.60
2020,01,17,16,09,2.60
2020,01,17,16,10,2.60
2020,01,17,16,11,2.60
2020,01,17,16,12,2.60
2020,01,17,16,13,2.60
2020,01,17,16,14,2.50
2020,01,17,16,15,2.50
2020,01,17,16,16,2.50
2020,01,17,16,17,2.40
2020,01,17,16,18,2.40
2020,01,17,16,19,2.40
2020,01,17,16,20,2.40
2020,01,17,16,21,2.30
2020,01,17,16,22,2.30
2020,01,17,16,23,2.30
2020,01,17,16,24,2.30
2020,01,17,16,25,2.20
2020,01,17,16,26,2.20
2020,01,17,16,27,2.20
2020,01,17,16,28,2.20
2020,01,17,16,29,2.20
2020,01,17,16,30,2.20
2020,01,17,16,31,2.20
2020,01,17,16,32,2.20
2020,01,17,16,33,2.20
2020,01,17,16,34,2.20
2020,01,17,16,35,2.20
2020,01,17,16,36,2.20
2020,01,17,16,37,2.20
2020,01,17,16,38,2.20
2020,01,17,16,39,2.20
2020,01,17,16,40,2.20
2020,01,17,16,41,2.20
2020,01,17,16,42,2.20
2020,01,17,16,43,2.20
2020,01,17,16,44,2.20
2020,01,17,16,45,2.20
2020,01,17,16,46,2.20
2020,01,17,16,47,2.20
2020,01,17,16,48,2.20
2020,01,17,16,49,2.20
2020,01,17,16,50,2.20
2020,01,17,16,51,2.20
2020,01,17,16,52,2.20
2020,01,17,16,53,2.20
2020,01,17,16,54,2.20
2020,01,17,16,55,2.20
2020,01,17,16,56,2.20
2020,01,17,16,57,2.20
2020,01,17,16,58,2.20
2020,01,17,16,59,2.20
2020,01,17,17,00,2.20
2020,01,17,17,01,2.20
2020,01,17,17,02,2.20
2020,01,17,17,03,2.20
2020,01,17,17,04,2.20
2020,01,17,17,05,2.20
2020,01,17,17,06,2.30
2020,01,17,17,07,2.30
2020,01,17,17,08,2.30
2020,01,17,17,09,2.30
2020,01,17,17,10,2.30
2020,01,17,17,11,2.30
2020,01,17,17,12,2.30
2020,01,17,17,13,2.30
2020,01,17,17,14,2.30
2020,01,17,17,15,2.30
2020,01,17,17,16,2.30
2020,01,17,17,17,2.30
2020,01,17,17,18,2.30
2020,01,17,17,19,2.30
2020,01,17,17,20,2.30
2020,01,17,17,21,2.30
2020,01,17,17,22,2.30
2020,01,17,17,23,2.30
2020,01,17,17,24,2.30
2020,01,17,17,25,2.30
2020,01,17,17,26,2.40
2020,01,17,17,27,2.40
2020,01,17,17,28,2.40
2020,01,17,17,29,2.50
2020,01,17,17,30,2.50
2020,01,17,17,31,2.50
2020,01,17,17,32,2.50
2020,01,17,17,33,2.50
2020,01,17,17,34,2.50
2020,01,17,17,35,2.40
2020,01,17,17,36,2.40